Location: Saratoga Springs
(43.0831°N, 73.7850°W)
Time: 20:25:35
(UTC-04:00)

A-11 Canister half - Pass Details

Date: 18 April 2024
Orbit: 1514 x 1685 km, 47.2° (Epoch: 23 May)

Event Time Altitude Azimuth Distance (km) Brightness Sun altitude
Rises 20:11:53 0° 291° (WNW) 4,815 14.6 -6.0°
Reaches altitude 10° 20:15:53 10° 278° (W) 3,854 12.7 -6.7°
Maximum altitude 20:22:44 22° 233° (SW) 3,056 11.0 -7.8°
Drops below altitude 10° 20:29:44 10° 188° (S) 3,919 11.0 -9.0°
Sets 20:33:54 0° 174° (S) 4,917 11.3 -9.7°
